EW9957 Weather Reports


Display with metric or nautical units.
time (UTC)temp
F
wind
direction
speed
MPH
gust
MPH
rain 1hr
in
rain 24hr
in
rain mn
in
humidity
%
barometer
mb
20260831134045 70 36 0.0 2.0 0.00 0.00 0.00 85 1014.1
20260831133617 70 36 1.0 2.0 0.00 0.00 0.00 86 1014.1
20260831133057 70 34 0.0 2.0 0.00 0.00 0.00 86 1014.0
20260831132528 70 38 0.0 2.0 0.00 0.00 0.00 86 1014.0
20260831132023 70 35 0.0 2.0 0.00 0.00 0.00 86 1013.9
20260831131523 70 35 0.0 2.0 0.00 0.00 0.00 87 1013.9
20260831131116 69 32 0.0 2.0 0.00 0.00 0.00 87 1013.9
20260831131034 69 32 0.0 2.0 0.00 0.00 0.00 87 1013.9
20260831130547 69 32 1.0 2.0 0.00 0.00 0.00 87 1013.9
20260831130109 69 35 0.0 0.0 0.00 0.00 0.00 87 1013.9
20260831125519 69 32 0.0 0.0 0.00 0.00 0.00 87 1013.9
20260831125112 69 34 0.0 1.0 0.00 0.00 0.00 87 1013.9
20260831124548 69 35 0.0 2.0 0.00 0.00 0.00 87 1013.9
20260831124102 69 35 1.0 2.0 0.00 0.00 0.00 87 1013.9
20260831124020 69 35 1.0 2.0 0.00 0.00 0.00 87 1013.9
20260831123609 69 35 1.0 2.0 0.00 0.00 0.00 87 1013.9
20260831123526 69 35 1.0 2.0 0.00 0.00 0.00 87 1013.9
20260831123047 69 35 0.0 2.0 0.00 0.00 0.00 88 1014.0
20260831122539 69 35 0.0 2.0 0.00 0.00 0.00 88 1013.8
20260831122051 69 34 0.0 3.0 0.00 0.00 0.00 88 1013.9
20260831121528 69 34 2.0 3.0 0.00 0.00 0.00 88 1013.9
20260831121101 69 35 1.0 3.0 0.00 0.00 0.00 89 1013.9
20260831121018 69 35 1.0 3.0 0.00 0.00 0.00 89 1013.9
20260831120532 69 35 2.0 3.0 0.00 0.00 0.00 89 1013.9
20260831120052 69 35 2.0 3.0 0.00 0.00 0.00 89 1013.9
20260831115524 69 35 0.0 3.0 0.00 0.00 0.00 89 1013.9
20260831115021 69 38 1.0 3.0 0.00 0.00 0.00 89 1013.8
20260831114559 69 35 2.0 3.0 0.00 0.00 0.00 89 1013.8
20260831114516 69 35 2.0 3.0 0.00 0.00 0.00 89 1013.8
20260831114035 69 36 1.0 4.0 0.00 0.00 0.00 89 1013.9
20260831113527 69 34 2.0 4.0 0.00 0.00 0.00 89 1013.9
20260831113028 69 35 1.0 3.0 0.00 0.00 0.00 89 1013.9
20260831112603 69 36 1.0 3.0 0.00 0.00 0.00 89 1013.9
20260831112520 69 36 1.0 3.0 0.00 0.00 0.00 89 1013.9
20260831112109 69 34 1.0 2.0 0.00 0.00 0.00 89 1013.9
20260831111609 69 35 1.0 2.0 0.00 0.00 0.00 89 1013.9
20260831111040 69 35 1.0 3.0 0.00 0.00 0.00 89 1014.0
20260831110531 69 34 0.0 3.0 0.00 0.00 0.00 88 1014.1
20260831110050 69 38 2.0 3.0 0.00 0.00 0.00 88 1014.0
20260831105523 69 34 2.0 4.0 0.00 0.00 0.00 88 1014.0
20260831105037 69 34 3.0 4.0 0.00 0.00 0.00 88 1014.0
20260831104537 69 34 0.0 2.0 0.00 0.00 0.00 88 1014.0
20260831104110 69 36 0.0 2.0 0.00 0.00 0.00 88 1014.1
20260831104027 69 36 0.0 2.0 0.00 0.00 0.00 88 1014.1
20260831103601 69 35 1.0 3.0 0.00 0.00 0.00 88 1014.1
20260831103101 69 35 1.0 4.0 0.00 0.00 0.00 88 1014.1
20260831102613 69 35 2.0 4.0 0.00 0.00 0.00 88 1014.0
20260831102104 69 32 1.0 4.0 0.00 0.00 0.00 88 1014.1
20260831102022 69 32 1.0 4.0 0.00 0.00 0.00 88 1014.1
20260831101522 69 35 2.0 5.0 0.00 0.00 0.00 88 1014.1
20260831101036 69 35 3.0 5.0 0.00 0.00 0.00 88 1014.0
20260831100608 69 32 2.0 5.0 0.00 0.00 0.00 87 1014.0
20260831100045 70 36 2.0 5.0 0.00 0.00 0.00 87 1014.0
20260831095538 69 34 2.0 4.0 0.00 0.00 0.00 87 1014.0
20260831095111 69 36 3.0 4.0 0.00 0.00 0.00 87 1014.0
20260831094544 70 38 2.0 5.0 0.00 0.00 0.00 87 1014.0
20260831094021 69 35 3.0 5.0 0.00 0.00 0.00 87 1014.0
20260831093515 70 36 2.0 5.0 0.00 0.00 0.00 87 1014.0
20260831093055 70 37 2.0 4.0 0.00 0.00 0.00 88 1014.1
20260831092549 69 34 3.0 4.0 0.00 0.00 0.00 88 1014.1
20260831092021 69 38 3.0 4.0 0.00 0.00 0.00 88 1014.0
20260831091521 69 32 2.0 5.0 0.00 0.00 0.00 88 1014.1
20260831091054 69 36 4.0 5.0 0.00 0.00 0.00 88 1014.0
20260831090546 70 35 1.0 5.0 0.00 0.00 0.00 88 1014.1
20260831090104 69 35 2.0 6.0 0.00 0.00 0.00 89 1014.1
20260831090022 69 35 2.0 6.0 0.00 0.00 0.00 89 1014.1
20260831085535 69 34 4.0 6.0 0.00 0.00 0.00 89 1014.1
20260831085108 69 34 3.0 5.0 0.00 0.00 0.00 89 1014.1
20260831084607 69 35 4.0 5.0 0.00 0.00 0.00 89 1014.1
20260831084038 69 36 1.0 3.0 0.00 0.00 0.00 89 1014.1
20260831083552 69 36 2.0 4.0 0.00 0.00 0.00 89 1014.1
20260831083031 69 38 3.0 5.0 0.00 0.00 0.00 89 1014.1
20260831082604 69 35 1.0 4.0 0.00 0.00 0.00 89 1014.1
20260831082522 69 35 1.0 4.0 0.00 0.00 0.00 89 1014.1
20260831082035 69 35 1.0 4.0 0.00 0.00 0.00 89 1014.1
20260831081515 69 38 1.0 3.0 0.00 0.00 0.00 88 1014.1
20260831081029 69 35 0.0 3.0 0.00 0.00 0.00 89 1014.1
20260831080542 69 35 1.0 3.0 0.00 0.00 0.00 89 1014.1
20260831080104 69 35 0.0 0.0 0.00 0.00 0.00 88 1014.2
20260831075536 69 36 0.0 0.0 0.00 0.00 0.00 89 1014.3
20260831075030 69 34 0.0 0.0 0.00 0.00 0.00 88 1014.3
20260831074529 68 34 0.0 0.0 0.00 0.00 0.00 88 1014.2
20260831074022 68 36 0.0 0.0 0.00 0.00 0.00 88 1014.2
20260831073521 69 35 0.0 0.0 0.00 0.00 0.00 88 1014.2
20260831073021 69 37 0.0 0.0 0.00 0.00 0.00 88 1014.2
20260831072555 69 34 0.0 0.0 0.00 0.00 0.00 89 1014.1
20260831072104 69 36 0.0 0.0 0.00 0.00 0.00 88 1014.1
20260831072022 69 36 0.0 0.0 0.00 0.00 0.00 88 1014.1
20260831071522 69 36 0.0 0.0 0.00 0.00 0.00 89 1014.2
20260831071116 69 34 0.0 0.0 0.00 0.00 0.00 89 1014.2
20260831071033 69 34 0.0 0.0 0.00 0.00 0.00 89 1014.2
20260831070527 69 32 0.0 0.0 0.00 0.00 0.00 88 1014.2
20260831070048 69 35 0.0 0.0 0.00 0.00 0.00 89 1014.2
20260831065519 69 35 0.0 1.0 0.00 0.00 0.00 88 1014.2
20260831065111 69 35 0.0 1.0 0.00 0.00 0.00 87 1014.2
20260831064527 69 38 0.0 1.0 0.00 0.00 0.00 87 1014.2
20260831064100 69 35 0.0 1.0 0.00 0.00 0.00 87 1014.1
20260831063612 70 36 0.0 0.0 0.00 0.00 0.00 87 1014.2
20260831063530 70 36 0.0 0.0 0.00 0.00 0.00 87 1014.2
20260831063028 70 34 0.0 0.0 0.00 0.00 0.00 87 1014.1
20260831062523 70 36 0.0 0.0 0.00 0.00 0.00 86 1014.1
20260831062020 70 35 0.0 0.0 0.00 0.00 0.00 86 1014.1
20260831061521 70 32 0.0 0.0 0.00 0.00 0.00 86 1014.0
20260831061034 70 32 0.0 0.0 0.00 0.00 0.00 86 1014.0
20260831060603 70 35 0.0 0.0 0.00 0.00 0.00 86 1013.9
20260831060521 70 35 0.0 0.0 0.00 0.00 0.00 86 1013.9
20260831060021 70 36 0.0 0.0 0.00 0.00 0.00 86 1013.9
20260831055535 70 35 0.0 0.0 0.00 0.00 0.00 87 1014.0
20260831055106 71 36 0.0 0.0 0.00 0.00 0.00 87 1013.9
20260831054607 70 37 0.0 0.0 0.00 0.00 0.00 87 1013.9
20260831054018 70 37 0.0 0.0 0.00 0.00 0.00 87 1014.0
20260831053613 70 34 0.0 0.0 0.00 0.00 0.00 86 1014.0
20260831053530 70 34 0.0 0.0 0.00 0.00 0.00 86 1014.0
20260831053027 71 35 0.0 0.0 0.00 0.00 0.00 86 1014.1
20260831052601 71 36 0.0 0.0 0.00 0.00 0.00 87 1014.1
20260831052518 71 36 0.0 0.0 0.00 0.00 0.00 87 1014.1
20260831052032 71 34 0.0 0.0 0.00 0.00 0.00 86 1014.0
20260831051553 71 36 0.0 0.0 0.00 0.00 0.00 87 1014.0
20260831051025 71 34 0.0 2.0 0.00 0.00 0.00 86 1014.1
20260831050541 71 35 1.0 2.0 0.00 0.00 0.00 86 1014.1
20260831050019 71 36 0.0 2.0 0.00 0.00 0.00 86 1014.0
20260831045613 71 35 1.0 4.0 0.00 0.00 0.00 86 1014.0
20260831045105 71 35 2.0 6.0 0.00 0.00 0.00 87 1014.0
20260831045022 71 35 2.0 6.0 0.00 0.00 0.00 87 1014.0
20260831044523 71 35 3.0 6.0 0.00 0.00 0.00 86 1014.0
20260831044017 71 34 3.0 5.0 0.00 0.00 0.00 86 1013.9
20260831043551 71 35 3.0 4.0 0.00 0.00 0.00 86 1013.9
20260831043027 72 35 2.0 3.0 0.00 0.00 0.00 86 1014.0
20260831042520 72 35 1.0 6.0 0.00 0.00 0.00 85 1013.9
20260831042033 72 35 3.0 6.0 0.00 0.00 0.00 85 1013.8
20260831041626 72 38 3.0 4.0 0.00 0.00 0.00 85 1013.7
20260831041016 72 36 3.0 4.0 0.00 0.00 0.00 85 1013.7
20260831040610 72 35 3.0 6.0 0.00 0.00 0.00 85 1013.7
20260831040048 72 34 3.0 7.0 0.00 0.00 0.00 85 1013.7
20260831035600 72 35 4.0 7.0 0.00 0.00 0.00 85 1013.6
20260831035518 72 35 4.0 7.0 0.00 0.00 0.00 85 1013.6
20260831035111 72 35 4.0 7.0 0.00 0.00 0.00 85 1013.5
20260831034529 72 35 3.0 7.0 0.00 0.00 0.00 85 1013.4
20260831034042 72 34 4.0 5.0 0.00 0.00 0.00 85 1013.4
20260831033536 72 34 3.0 5.0 0.00 0.00 0.00 85 1013.3
20260831033035 72 34 4.0 5.0 0.00 0.00 0.00 85 1013.3
20260831032527 72 34 3.0 6.0 0.00 0.00 0.00 85 1013.3
20260831032020 72 34 3.0 7.0 0.00 0.00 0.00 85 1013.2
20260831031543 72 36 3.0 7.0 0.00 0.00 0.00 85 1013.1
20260831031056 72 32 2.0 6.0 0.00 0.00 0.00 85 1013.0
20260831031013 72 32 2.0 6.0 0.00 0.00 0.00 85 1013.0
20260831030548 72 38 3.0 6.0 0.00 0.00 0.00 84 1013.0
20260831030048 72 34 4.0 6.0 0.00 0.00 0.00 84 1013.0
20260831025601 72 35 3.0 6.0 0.00 0.00 0.00 84 1013.0
20260831025519 72 35 3.0 6.0 0.00 0.00 0.00 84 1013.0
20260831025053 72 35 3.0 5.0 0.00 0.00 0.00 84 1013.0
20260831024530 72 34 3.0 7.0 0.00 0.00 0.00 84 1013.0
20260831024104 72 35 3.0 8.0 0.00 0.00 0.00 84 1013.0
20260831024022 72 35 3.0 8.0 0.00 0.00 0.00 84 1013.0
20260831023536 73 34 5.0 8.0 0.00 0.00 0.00 83 1012.9
20260831023037 73 35 6.0 8.0 0.00 0.00 0.00 82 1012.9
20260831022549 73 35 6.0 8.0 0.00 0.00 0.00 82 1012.8
20260831022102 74 35 3.0 7.0 0.00 0.00 0.00 81 1012.7
20260831022020 74 35 3.0 7.0 0.00 0.00 0.00 81 1012.7
20260831021521 74 37 4.0 7.0 0.00 0.00 0.00 80 1012.7
20260831021035 74 35 4.0 8.0 0.00 0.00 0.00 79 1012.6
20260831020528 75 35 4.0 7.0 0.00 0.00 0.00 78 1012.6
20260831020048 75 34 4.0 5.0 0.00 0.00 0.00 78 1012.5
20260831015601 75 36 4.0 6.0 0.00 0.00 0.00 77 1012.4
20260831015519 75 36 4.0 6.0 0.00 0.00 0.00 77 1012.4
20260831015112 75 34 4.0 6.0 0.00 0.00 0.00 77 1012.4
20260831015030 75 34 4.0 6.0 0.00 0.00 0.00 77 1012.4
20260831014528 75 35 4.0 7.0 0.00 0.00 0.00 77 1012.5
20260831014022 76 35 4.0 8.0 0.00 0.00 0.00 77 1012.5
20260831013515 76 34 4.0 8.0 0.00 0.00 0.00 74 1012.5
20260831013035 76 35 5.0 9.0 0.00 0.00 0.00 74 1012.5
20260831012608 76 35 5.0 10.0 0.00 0.00 0.00 74 1012.4
20260831012525 76 35 5.0 10.0 0.00 0.00 0.00 74 1012.4
20260831012019 76 34 6.0 10.0 0.00 0.00 0.00 74 1012.5
20260831011519 77 36 6.0 11.0 0.00 0.00 0.00 73 1012.5
20260831011052 77 38 7.0 11.0 0.00 0.00 0.00 72 1012.5
20260831010525 78 35 5.0 11.0 0.00 0.00 0.00 71 1012.6
20260831010045 77 34 5.0 10.0 0.00 0.00 0.00 71 1012.6
20260831005516 78 38 6.0 10.0 0.00 0.00 0.00 71 1012.6
20260831005030 78 35 5.0 9.0 0.00 0.00 0.00 70 1012.6
20260831004551 78 36 5.0 9.0 0.00 0.00 0.00 70 1012.5
20260831004023 78 35 6.0 9.0 0.00 0.00 0.00 69 1012.6
20260831003517 79 35 6.0 11.0 0.00 0.00 0.00 69 1012.6
20260831003039 78 35 7.0 11.0 0.00 0.00 0.00 69 1012.6
20260831002553 78 34 7.0 11.0 0.00 0.00 0.00 69 1012.6
20260831002106 79 32 7.0 11.0 0.00 0.00 0.00 69 1012.6
20260831002023 79 32 7.0 11.0 0.00 0.00 0.00 69 1012.6
20260831001606 79 35 6.0 11.0 0.00 0.00 0.00 70 1012.6
20260831001038 79 34 6.0 11.0 0.00 0.00 0.00 69 1012.6
20260831000551 78 35 8.0 11.0 0.00 0.00 0.00 71 1012.6
20260831000031 79 36 9.0 11.0 0.00 0.00 0.00 68 1012.5
20260830235604 79 36 7.0 11.0 0.00 0.00 0.00 69 1012.5
20260830235522 79 36 7.0 11.0 0.00 0.00 0.00 69 1012.5
20260830235016 79 34 4.0 12.0 0.00 0.00 0.00 66 1012.5
20260830234558 80 37 6.0 10.0 0.00 0.00 0.00 66 1012.5
20260830234516 80 37 6.0 10.0 0.00 0.00 0.00 66 1012.5
20260830234049 80 32 6.0 10.0 0.00 0.00 0.00 64 1012.5
20260830233522 80 34 6.0 10.0 0.00 0.00 0.00 63 1012.5
20260830233115 79 35 7.0 11.0 0.00 0.00 0.00 65 1012.5
20260830232545 80 36 7.0 12.0 0.00 0.00 0.00 66 1012.5
20260830232016 79 36 8.0 12.0 0.00 0.00 0.00 65 1012.5
20260830231559 80 35 6.0 10.0 0.00 0.00 0.00 64 1012.6
20260830231516 80 35 6.0 10.0 0.00 0.00 0.00 64 1012.6
20260830231029 80 34 7.0 11.0 0.00 0.00 0.00 64 1012.7
20260830230542 80 34 6.0 12.0 0.00 0.00 0.00 63 1012.6
20260830230022 80 34 8.0 12.0 0.00 0.00 0.00 63 1012.7
20260830225515 80 34 7.0 12.0 0.00 0.00 0.00 63 1012.7
20260830225049 81 35 8.0 14.0 0.00 0.00 0.00 61 1012.8
20260830224549 81 36 9.0 14.0 0.00 0.00 0.00 64 1012.7
20260830224042 81 35 9.0 13.0 0.00 0.00 0.00 62 1012.7
20260830223555 81 35 9.0 15.0 0.00 0.00 0.00 62 1012.9
20260830223035 81 35 9.0 15.0 0.00 0.00 0.00 62 1012.8
20260830222547 82 36 7.0 16.0 0.00 0.00 0.00 62 1012.7
20260830222019 82 36 11.0 16.0 0.00 0.00 0.00 62 1012.9
20260830221602 82 35 6.0 13.0 0.00 0.00 0.00 62 1012.9
20260830221520 82 35 6.0 13.0 0.00 0.00 0.00 62 1012.9
20260830221013 81 34 7.0 14.0 0.00 0.00 0.00 63 1012.9
20260830220527 82 38 10.0 14.0 0.00 0.00 0.00 62 1013.0
20260830220026 82 35 7.0 14.0 0.00 0.00 0.00 61 1013.1
20260830215519 83 32 8.0 14.0 0.00 0.00 0.00 62 1013.1
20260830215113 82 35 10.0 13.0 0.00 0.00 0.00 62 1013.1
20260830214549 82 36 7.0 13.0 0.00 0.00 0.00 62 1013.1
20260830214043 82 35 6.0 13.0 0.00 0.00 0.00 61 1013.2
20260830213537 82 34 6.0 13.0 0.00 0.00 0.00 63 1013.2
20260830213059 83 35 8.0 11.0 0.00 0.00 0.00 63 1013.3
20260830212551 82 34 7.0 12.0 0.00 0.00 0.00 64 1013.5
20260830212043 82 35 8.0 14.0 0.00 0.00 0.00 65 1013.5
20260830211604 82 35 9.0 14.0 0.00 0.00 0.00 65 1013.5
20260830211015 82 34 8.0 14.0 0.00 0.00 0.00 65 1013.6
20260830210529 81 35 8.0 14.0 0.00 0.00 0.00 65 1013.6
20260830210049 82 36 8.0 14.0 0.00 0.00 0.00 64 1013.7
20260830205520 82 35 8.0 15.0 0.00 0.00 0.00 65 1013.7
20260830205113 82 34 10.0 15.0 0.00 0.00 0.00 64 1013.7
20260830204531 82 34 8.0 16.0 0.00 0.00 0.00 65 1013.7
20260830204047 83 38 9.0 15.0 0.00 0.00 0.00 64 1013.7
20260830203520 83 34 11.0 15.0 0.00 0.00 0.00 63 1013.8
20260830203103 83 34 10.0 15.0 0.00 0.00 0.00 64 1013.6
20260830202614 83 34 8.0 14.0 0.00 0.00 0.00 63 1013.7
20260830202532 83 34 8.0 14.0 0.00 0.00 0.00 63 1013.7
20260830202025 83 35 9.0 16.0 0.00 0.00 0.00 64 1013.7
20260830201545 83 36 10.0 14.0 0.00 0.00 0.00 64 1013.7
20260830201016 84 34 8.0 16.0 0.00 0.00 0.00 64 1013.6
20260830200529 83 35 8.0 15.0 0.00 0.00 0.00 64 1013.7
20260830200027 84 34 10.0 12.0 0.00 0.00 0.00 63 1013.7
20260830195600 84 35 9.0 13.0 0.00 0.00 0.00 63 1013.7
20260830195112 84 35 6.0 13.0 0.00 0.00 0.00 65 1013.8
20260830195030 84 35 6.0 13.0 0.00 0.00 0.00 65 1013.8
20260830194529 83 36 10.0 13.0 0.00 0.00 0.00 64 1013.8
20260830194103 83 36 7.0 14.0 0.00 0.00 0.00 66 1013.8
20260830194020 83 36 7.0 14.0 0.00 0.00 0.00 66 1013.8
20260830193515 83 35 7.0 14.0 0.00 0.00 0.00 66 1013.9
20260830193058 82 32 9.0 16.0 0.00 0.00 0.00 65 1013.9
20260830193016 82 32 9.0 16.0 0.00 0.00 0.00 65 1013.9
20260830192549 82 36 8.0 16.0 0.00 0.00 0.00 65 1013.9
20260830192043 83 34 10.0 16.0 0.00 0.00 0.00 65 1013.9
20260830191523 83 34 9.0 16.0 0.00 0.00 0.00 65 1013.9
20260830191038 83 32 11.0 16.0 0.00 0.00 0.00 64 1013.9
20260830190531 83 35 9.0 15.0 0.00 0.00 0.00 64 1014.0
20260830190030 83 35 9.0 14.0 0.00 0.00 0.00 63 1014.0
20260830185603 83 35 8.0 13.0 0.00 0.00 0.00 62 1014.1
20260830185520 83 35 8.0 13.0 0.00 0.00 0.00 62 1014.1
20260830185014 83 37 9.0 13.0 0.00 0.00 0.00 61 1014.2
20260830184557 84 36 8.0 10.0 0.00 0.00 0.00 61 1014.1
20260830184049 84 34 6.0 10.0 0.00 0.00 0.00 61 1014.1
20260830183601 83 36 5.0 12.0 0.00 0.00 0.00 62 1014.1
20260830183018 83 35 7.0 11.0 0.00 0.00 0.00 62 1014.1
20260830182612 83 35 7.0 10.0 0.00 0.00 0.00 62 1014.2
20260830182530 83 35 7.0 10.0 0.00 0.00 0.00 62 1014.2
20260830182103 83 36 5.0 12.0 0.00 0.00 0.00 63 1014.2
20260830182020 83 36 5.0 12.0 0.00 0.00 0.00 63 1014.2
20260830181101 82 34 8.0 10.0 0.00 0.00 0.00 62 1014.2
20260830181018 82 34 8.0 10.0 0.00 0.00 0.00 62 1014.2
20260830180512 82 34 5.0 11.0 0.00 0.00 0.00 62 1014.2
20260830180056 83 32 6.0 10.0 0.00 0.00 0.00 61 1014.2
20260830180014 83 32 6.0 10.0 0.00 0.00 0.00 61 1014.2
20260830175607 82 32 4.0 10.0 0.00 0.00 0.00 61 1014.2
20260830175039 82 34 3.0 8.0 0.00 0.00 0.00 63 1014.2
20260830174609 81 35 4.0 9.0 0.00 0.00 0.00 63 1014.2
20260830174042 81 35 4.0 9.0 0.00 0.00 0.00 63 1014.2
20260830173534 81 32 4.0 10.0 0.00 0.00 0.00 65 1014.1
20260830173055 80 35 5.0 10.0 0.00 0.00 0.00 65 1014.0
20260830172549 81 35 2.0 8.0 0.00 0.00 0.00 65 1014.0
20260830172102 81 35 5.0 9.0 0.00 0.00 0.00 67 1014.0
20260830172019 81 35 5.0 9.0 0.00 0.00 0.00 67 1014.0
20260830171613 80 34 5.0 9.0 0.00 0.00 0.00 67 1013.9
20260830171105 80 35 4.0 9.0 0.00 0.00 0.00 66 1013.8
20260830171022 80 35 4.0 9.0 0.00 0.00 0.00 66 1013.8
20260830170537 81 34 5.0 6.0 0.00 0.00 0.00 67 1013.8
20260830170109 81 32 3.0 5.0 0.00 0.00 0.00 67 1013.8
20260830170026 81 32 3.0 5.0 0.00 0.00 0.00 67 1013.8
20260830165539 80 34 1.0 5.0 0.00 0.00 0.00 69 1013.8
20260830165031 79 34 3.0 6.0 0.00 0.00 0.00 71 1013.7
20260830164548 79 35 4.0 6.0 0.00 0.00 0.00 72 1013.8
20260830164043 79 37 2.0 5.0 0.00 0.00 0.00 73 1013.9
20260830163516 78 34 3.0 7.0 0.00 0.00 0.00 74 1013.9
20260830163059 78 35 4.0 7.0 0.00 0.00 0.00 75 1013.8
20260830162530 77 35 1.0 3.0 0.00 0.00 0.00 76 1013.9
20260830162102 77 32 1.0 4.0 0.00 0.00 0.00 77 1013.9
20260830161609 77 34 1.0 4.0 0.00 0.00 0.00 78 1013.9
20260830161059 76 32 2.0 4.0 0.00 0.00 0.00 78 1013.8
20260830160530 76 38 0.0 3.0 0.00 0.00 0.00 79 1013.8
20260830160052 76 35 2.0 4.0 0.00 0.00 0.00 79 1013.8
20260830155529 76 34 2.0 4.0 0.00 0.00 0.00 79 1013.9
20260830155059 76 35 0.0 2.0 0.00 0.00 0.00 80 1013.8
20260830154610 75 36 1.0 3.0 0.00 0.00 0.00 84 1013.8
20260830154527 75 36 1.0 3.0 0.00 0.00 0.00 84 1013.8
20260830154101 74 36 2.0 3.0 0.00 0.00 0.00 83 1013.8
20260830153552 74 38 0.0 2.0 0.00 0.00 0.00 84 1013.7
20260830153054 74 36 0.0 0.0 0.00 0.00 0.00 85 1013.8
20260830152607 74 34 0.0 2.0 0.00 0.00 0.00 85 1013.8
20260830152524 74 34 0.0 2.0 0.00 0.00 0.00 85 1013.8
20260830152037 73 38 0.0 2.0 0.00 0.00 0.00 86 1013.9
20260830151535 73 35 0.0 0.0 0.00 0.00 0.00 86 1014.0
20260830151028 73 32 0.0 2.0 0.00 0.00 0.00 86 1014.0
20260830150601 73 35 0.0 2.0 0.00 0.00 0.00 87 1014.1
20260830150101 72 36 0.0 2.0 0.00 0.00 0.00 87 1014.1
20260830145612 73 34 0.0 3.0 0.00 0.00 0.00 88 1014.0
20260830145530 73 34 0.0 3.0 0.00 0.00 0.00 88 1014.0
20260830145045 72 36 2.0 3.0 0.00 0.00 0.00 88 1014.0
20260830144525 72 37 0.0 2.0 0.00 0.00 0.00 89 1013.9
20260830143601 72 35 1.0 3.0 0.00 0.00 0.00 89 1013.8
20260830143518 72 35 1.0 3.0 0.00 0.00 0.00 89 1013.8
20260830143039 71 35 2.0 3.0 0.00 0.00 0.00 89 1013.8
20260830142547 71 36 2.0 4.0 0.00 0.00 0.00 89 1013.8
20260830142059 71 34 2.0 4.0 0.00 0.00 0.00 89 1013.8
20260830141600 72 34 1.0 3.0 0.00 0.00 0.00 90 1013.8
20260830141517 72 34 1.0 3.0 0.00 0.00 0.00 90 1013.8
20260830141110 71 32 1.0 2.0 0.00 0.00 0.00 90 1013.8
20260830140520 71 34 1.0 3.0 0.00 0.00 0.00 89 1013.7
20260830140042 72 34 2.0 3.0 0.00 0.00 0.00 89 1013.7
20260830135536 72 32 1.0 3.0 0.00 0.00 0.00 90 1013.6
20260830135109 72 38 2.0 3.0 0.00 0.00 0.00 90 1013.7
20260830134610 72 32 2.0 3.0 0.00 0.00 0.00 91 1013.6
20260830134528 72 32 2.0 3.0 0.00 0.00 0.00 91 1013.6